994  
ASUS41 KBOX 232210  
RWRBOX  
 
REGIONAL WEATHER ROUNDUP  
NATIONAL WEATHER SERVICE TAUNTON MA  
600 PM EDT SUN JUL 23 2017  
 
NOTE: "FAIR" INDICATES FEW OR NO CLOUDS BELOW 12,000 FEET WITH NO  
SIGNIFICANT WEATHER AND/OR S TO VISIBILITY
.  
 
MAZALL-232300-  
EASTERN MASSACHUSETTS  
 
CITY SKY/WX TMP DP RH WIND PRES REMARKS
 
BOSTON CLOUDY 66 53 63 E12 29.91R  
BEVERLY CLOUDY 68 53 58 SE7 29.90R  
LAWRENCE CLOUDY 72 52 49 E5 29.92R  
BEDFORD CLOUDY 71 42 35 SE10 29.89R  
BLUE HILL N/A 68 53 58 NE8 29.90S  
NORWOOD MOSUNNY 71 55 56 VRB7 29.89R  
MARSHFIELD PTSUNNY 70 57 64 NE8 29.90S  
PLYMOUTH MOSUNNY 68 54 60 NE8 29.90S  
TAUNTON MOSUNNY 71 51 49 E5 29.89R  
NEW BEDFORD MOSUNNY 72 52 49 E10 29.88R  

 
 
MAZALL-232300-  
CAPE COD AND THE ISLANDS  
 
CITY SKY/WX TMP DP RH WIND PRES REMARKS
 
FALMOUTH CLOUDY 68 57 68 NE10 29.89S  
HYANNIS CLOUDY 71 56 58 NE7 29.87R  
CHATHAM MOSUNNY 69 57 65 NE10 29.89S  
PROVINCETOWN CLOUDY 68 56 65 NE10 29.91R  
NANTUCKET MOSUNNY 69 59 70 NE10 29.87S  
MARTHAS VNYRD MOSUNNY 74 58 57 E13 29.87S  

 
 
MAZALL-232300-  
CENTRAL AND WESTERN MASSACHUSETTS  
 
CITY SKY/WX TMP DP RH WIND PRES REMARKS
 
WORCESTER CLOUDY 72 49 44 E6 29.90S  
FITCHBURG CLOUDY 75 52 44 SE7 29.90R  
ORANGE CLOUDY 76 56 49 E9 29.87S  
SPRINGFIELD PTSUNNY 79 56 44 CALM 29.84R  
WESTFIELD CLOUDY 80 60 50 SE5 29.84R  
NORTH ADAMS CLOUDY 74 60 61 E5 29.85S  
PITTSFIELD MOSUNNY 74 59 59 SE8 29.86R  

 
 
RIZALL-232300-  
RHODE ISLAND  
 
CITY SKY/WX TMP DP RH WIND PRES REMARKS
 
PROVIDENCE PTSUNNY 74 52 46 E10 29.88S  
NEWPORT MOSUNNY 73 56 54 NE8 29.87S  
BLOCK ISLAND PTSUNNY 71 61 70 E10 29.87S  
WESTERLY CLOUDY 74 57 55 E9 29.88R  

 
 
CTZALL-232300-  
CONNECTICUT  
 
CITY SKY/WX TMP DP RH WIND PRES REMARKS
 
BRADLEY INTL CLOUDY 80 59 48 VRB3 29.84R  
HARTFORD PTSUNNY 80 61 52 SE8 29.83S  
BRIDGEPORT CLOUDY 75 62 64 E10 29.86R  
DANBURY CLOUDY 73 64 73 SE12 29.86R  
GROTON CLOUDY 73 58 59 E13 29.86R  
NEW HAVEN CLOUDY 74 60 61 SE10 29.86R  
CHESTER PTSUNNY 75 61 60 VRB3G12 29.87R  
MERIDEN PTSUNNY 75 62 64 S8 29.85R  
WILLIMANTIC MOSUNNY 79 57 46 VRB6 29.86R  
OXFORD CLOUDY 73 61 64 S6 29.86S  

 
 
MEZ002-015-021-024-NHZ003-005-008-011-012-014-VTZ005-008-232300-  
NORTHERN NEW ENGLAND  
 
CITY SKY/WX TMP DP RH WIND PRES REMARKS
 
PORTLAND ME MOSUNNY 69 44 40 SW9 29.89R  
BANGOR ME PTSUNNY 75 44 33 N8 29.88R  
CONCORD NH SUNNY 75 54 47 S10 29.88R  
MANCHESTER NH CLOUDY 74 49 41 SE9 29.87R  
NASHUA NH CLOUDY 75 54 47 SE7 29.89R  
PORTSMOUTH NH PTSUNNY 69 48 46 SE9 29.89R  
JAFFREY NH MOSUNNY 73 57 57 S6 29.90R  
KEENE NH CLOUDY 75 57 53 S7 29.87R  
BURLINGTON VT MOSUNNY 77 52 41 N12 29.86S  
MT. WASHINGTON MOSUNNY 52 43 71 NW14G22 N/A  

 
 
NYZ052-076-232300-  
EASTERN NEW YORK  
 
CITY SKY/WX TMP DP RH WIND PRES REMARKS
 
ALBANY CLOUDY 77 65 66 NE8 29.82R  
NEW YORK CITY PTSUNNY 79 68 69 SE10 29.82R  

 
 
ANZALL-232300-  
MARINE OBSERVATIONS  
 
STATION/POSITION TIME TEMP WIND PRES VSBY WAVE
 
AIR SEA DIR/SP/G HT/PER  
(UTC) (F) (DEG/KT/KT) (MB) (MI) (FT/S)  
BOSTON BUOY 2150 66 67 70/ 8/ 10 1012.4R 3/ 6  
BUZZARDS BAY 2200 68 40/ 15/ 16 1011.8R  
NANTUCKET SOUND 2150 69 1011.4R 1/ 3  
MASS BAY-STELLWA 2104 66 65 60/ 8/ 10 1011.9R 3/ 6  
ISLE OF SHOALS 2200 65 140/ 8/ 8 1012.3R  
S OF BLOCK IS 2155 75 N/A 4/ 7  

 
   
.....................KEY......................
 
 
SKY/WX - SKY CONDITION/PRESENT WEATHER  
TMP - TEMPERATURE IN FAHRENHEIT  
DWPT - DEWPOINT IN FAHRENHEIT  
RH - RELATIVE HUMIDITY IN PERCENT  
WIND - DIRECTION AND SPEED IN MPH  
PRES - MEAN SEA LEVEL PRESSURE IN INCHES OF HG  
WCI - WIND CHILL INDEX  
VSB - VISIBILITY IN MILES  
HX - HEAT INDEX  
TC - TEMPERATURE IN CELSIUS  
VRB - VARIABLE WIND DIRECTION  
N/A - NOT AVAILABLE  
 
 
CLICK HERE TO GO TO PREVIOUS BULLETINS.

The Nexlab MA Page
The Nexlab RI Page
The Nexlab NH Page
The Nexlab CT Page Main Text Page